Change the Weather History Date:

Thursday, January 9, 2014

  Actual Average Record
Temperature  
Mean Temperature 0 °F 4 °F  
Max Temperature 22 °F 15 °F 48 °F (1958)
Min Temperature -23 °F -7 °F -40 °F (1977)
Degree Days  
Heating Degree Days 65 61  
Month to date heating degree days 717 545  
Since 1 July heating degree days 5212 4720  
Cooling Degree Days 0 0  
Month to date cooling degree days 0 0  
Year to date cooling degree days 0 0  
Moisture  
Dew Point 0 °F    
Average Humidity 72    
Maximum Humidity 81    
Minimum Humidity 62    
Precipitation  
Precipitation T in 0.02 in 0.25 in (1909)
Month to date precipitation 0.29 0.21  
Year to date precipitation 0.29 0.21  
Snow  
Snow 0.10 in 0.50 in 2.50 in (2005)
Month to date snowfall 6.0 4.7  
Since 1 July snowfall 43.3 35.7  
Snow Depth 15.00 in    
Sea Level Pressure  
Sea Level Pressure 29.99 in    
Wind  
Wind Speed 8 mph (South)    
Max Wind Speed 16 mph    
Max Gust Speed 24 mph    
Visibility 10 miles    
Events Snow    
T = Trace of Precipitation, MM = Missing Value Source: NWS Daily Summary

Daily Weather History Graph

Daily Weather History Graph

Search for Another Location

Airport or City:

Trip Planner

Search our weather history database for the weather conditions in past years. The results will help you decide how hot, cold, wet, or windy it might be!

Date:

Astronomy

Jan. 09, 2014 Rise Set
Actual Time 8:03 AM CST 4:37 PM CST
Civil Twilight 7:27 AM CST 5:14 PM CST
Nautical Twilight 6:48 AM CST 5:53 PM CST
Astronomical Twilight 6:10 AM CST 6:31 PM CST
Moon 12:16 PM CST (1/9) 1:59 AM CST (1/9)
Length of Visible Light 9h 46m
Length of Day
8h 34m
Waxing Gibbous, 66% of the Moon is Illuminated
Jan 9
Waxing Gibbous
Jan 15
Full
Jan 23
Last Quarter
Jan 30
New
Feb 6
First Quarter

Hourly Weather History & Observations

Time (CST) Temp. Windchill Dew Point Humidity Pressure Visibility Wind Dir Wind Speed Gust Speed Precip Events Conditions
12:55 AM -18.0 °F -30.9 °F -22.0 °F 82% 30.34 in 10.0 mi SSE 4.6 mph - N/A   Clear
1:55 AM -16.1 °F -32.3 °F -22.0 °F 74% 30.30 in 10.0 mi SE 6.9 mph - N/A   Clear
2:55 AM -8.0 °F -21.0 °F -14.1 °F 75% 30.24 in 10.0 mi SSE 5.8 mph - N/A   Overcast
3:55 AM -2.9 °F -17.7 °F -9.9 °F 72% 30.19 in 10.0 mi South 8.1 mph - N/A   Overcast
4:55 AM -0.0 °F -11.6 °F -9.0 °F 66% 30.16 in 10.0 mi Variable 5.8 mph - N/A   Overcast
5:33 AM 1.4 °F -11.3 °F -7.6 °F 66% 30.02 in 6.0 mi Variable 6.9 mph - N/A Snow Light Snow
5:55 AM 3.9 °F -12.2 °F -7.1 °F 60% 30.13 in 9.0 mi South 11.5 mph 23.0 mph N/A   Overcast
6:06 AM 3.2 °F -10.3 °F -5.8 °F 66% 30.00 in 7.0 mi South 8.1 mph - N/A Snow Light Snow
6:55 AM 5.0 °F -9.1 °F -5.1 °F 63% 30.09 in 10.0 mi South 9.2 mph 18.4 mph N/A   Overcast
7:06 AM 5.0 °F -9.1 °F -5.8 °F 61% 29.96 in 10.0 mi South 9.2 mph 17.3 mph N/A   Overcast
7:55 AM 6.1 °F -6.8 °F -2.9 °F 67% 30.05 in 9.0 mi South 8.1 mph - N/A Snow Light Snow
8:42 AM 6.8 °F -5.9 °F -2.2 °F 67% 29.92 in 10.0 mi South 8.1 mph - N/A   Overcast
8:55 AM 8.1 °F -5.3 °F -0.9 °F 67% 30.04 in 10.0 mi South 9.2 mph - N/A   Overcast
9:55 AM 10.0 °F -1.9 °F 1.9 °F 70% 30.04 in 10.0 mi SSW 8.1 mph - N/A   Overcast
10:55 AM 12.0 °F -0.4 °F 3.9 °F 70% 29.99 in 10.0 mi South 9.2 mph 17.3 mph N/A   Overcast
11:55 AM 15.1 °F 4.2 °F 6.1 °F 68% 29.95 in 10.0 mi South 8.1 mph 17.3 mph N/A   Overcast
12:55 PM 19.0 °F 9.0 °F 10.0 °F 68% 29.91 in 10.0 mi South 8.1 mph 17.3 mph N/A   Overcast
1:55 PM 21.0 °F 10.6 °F 12.0 °F 68% 29.88 in 10.0 mi SSW 9.2 mph 18.4 mph N/A   Overcast
2:55 PM 21.9 °F 13.4 °F 12.0 °F 66% 29.86 in 10.0 mi Variable 6.9 mph - N/A   Overcast
3:55 PM 21.0 °F 10.6 °F 12.0 °F 68% 29.86 in 10.0 mi South 9.2 mph 17.3 mph N/A   Mostly Cloudy
5:55 PM 19.0 °F 10.0 °F 10.0 °F 68% 29.86 in 10.0 mi South 6.9 mph - N/A   Scattered Clouds
6:55 PM 17.1 °F 5.8 °F 9.0 °F 71% 29.86 in 10.0 mi South 9.2 mph - N/A   Clear
7:55 PM 16.0 °F 6.3 °F 8.1 °F 71% 29.84 in 10.0 mi South 6.9 mph - N/A   Mostly Cloudy
8:55 PM 16.0 °F 7.4 °F 9.0 °F 74% 29.82 in 10.0 mi Variable 5.8 mph - N/A   Overcast
9:55 PM 16.0 °F 8.8 °F 10.0 °F 77% 29.81 in 10.0 mi South 4.6 mph - N/A   Overcast
10:55 PM 17.1 °F 10.0 °F 10.0 °F 74% 29.80 in 10.0 mi South 4.6 mph - N/A   Overcast
11:55 PM 16.0 °F 7.4 °F 10.0 °F 77% 29.78 in 9.0 mi SSE 5.8 mph - N/A   Mostly Cloudy